When you browse on this site, cookies collect data to enhance your experience and personalize the content and advertising you see.
Visit our Privacy Policy to learn more. By continuing to use the site, you agree to this use of cookies and data.
  • In United Kingdom
  • List of Countries
  • For 7 days
  • Water Temperature
  • Weather Map
  • Weather Widgets
  • user-avatar
    Login

    Hourly Weather Kotonu

    Today, 18 October, Friday

    Time Temperature Precipitation Wind Pressure Humidity
    00:00 +27°C° 0 mm 3 mps 758 mmHg 88%
    01:00 +27°C° 1.2 mm 3 mps 757 mmHg 88%
    02:00 +27°C° 1.2 mm 3 mps 757 mmHg 87%
    03:00 +27°C° 1.2 mm 3 mps 756 mmHg 87%
    04:00 +27°C° 1.2 mm 3 mps 757 mmHg 88%
    05:00 +26°C° 1.2 mm 3 mps 757 mmHg 89%
    06:00 +26°C° 0 mm 3 mps 758 mmHg 91%
    07:00 +27°C° 1.9 mm 3 mps 758 mmHg 86%
    08:00 +29°C° 1.9 mm 4 mps 758 mmHg 82%
    09:00 +30°C° 1.9 mm 4 mps 758 mmHg 77%
    10:00 +30°C° 0.7 mm 4 mps 758 mmHg 76%
    11:00 +30°C° 0.7 mm 4 mps 758 mmHg 74%
    12:00 +30°C° 0.7 mm 4 mps 757 mmHg 72%
    13:00 +30°C° 0.1 mm 3 mps 756 mmHg 74%
    14:00 +29°C° 0.1 mm 2 mps 756 mmHg 76%
    15:00 +29°C° 0.1 mm 2 mps 755 mmHg 77%
    16:00 +29°C° 0 mm 2 mps 755 mmHg 79%
    17:00 +28°C° 0 mm 3 mps 756 mmHg 80%
    18:00 +28°C° 0 mm 3 mps 756 mmHg 82%
    19:00 +28°C° 0 mm 4 mps 757 mmHg 83%
    20:00 +28°C° 0 mm 4 mps 757 mmHg 84%
    21:00 +28°C° 0 mm 4 mps 758 mmHg 85%
    22:00 +27°C° 0.7 mm 4 mps 758 mmHg 86%
    23:00 +27°C° 0.7 mm 4 mps 758 mmHg 87%

    Tomorrow, 19 October, Saturday

    Time Temperature Precipitation Wind Pressure Humidity
    00:00 +27°C° 0.7 mm 5 mps 758 mmHg 88%
    01:00 +27°C° 2 mm 5 mps 757 mmHg 88%
    02:00 +27°C° 2 mm 5 mps 756 mmHg 88%
    03:00 +27°C° 2 mm 5 mps 756 mmHg 88%
    04:00 +26°C° 1.3 mm 4 mps 756 mmHg 89%
    05:00 +26°C° 1.3 mm 4 mps 757 mmHg 90%
    06:00 +26°C° 1.3 mm 4 mps 757 mmHg 91%
    07:00 +26°C° 0.3 mm 4 mps 757 mmHg 91%
    08:00 +27°C° 0.3 mm 4 mps 758 mmHg 90%
    09:00 +27°C° 0.3 mm 4 mps 758 mmHg 89%
    10:00 +28°C° 0 mm 4 mps 758 mmHg 86%
    11:00 +28°C° 0 mm 4 mps 757 mmHg 83%
    12:00 +29°C° 0 mm 4 mps 757 mmHg 80%
    13:00 +30°C° 0 mm 5 mps 756 mmHg 77%
    14:00 +30°C° 0 mm 6 mps 756 mmHg 74%
    15:00 +32°C° 0 mm 6 mps 755 mmHg 71%
    16:00 +30°C° 0 mm 6 mps 756 mmHg 76%
    17:00 +29°C° 0 mm 6 mps 756 mmHg 80%
    18:00 +28°C° 0 mm 6 mps 756 mmHg 84%
    19:00 +28°C° 0 mm 6 mps 757 mmHg 85%
    20:00 +28°C° 0 mm 6 mps 758 mmHg 86%
    21:00 +28°C° 0 mm 6 mps 758 mmHg 86%
    22:00 +27°C° 0.7 mm 5 mps 758 mmHg 87%
    23:00 +27°C° 0.7 mm 5 mps 758 mmHg 89%

    Day after tomorrow, 20 October, Sunday

    Time Temperature Precipitation Wind Pressure Humidity
    00:00 +27°C° 0.7 mm 5 mps 758 mmHg 90%
    01:00 +27°C° 1.1 mm 5 mps 757 mmHg 90%
    02:00 +26°C° 1.1 mm 4 mps 757 mmHg 90%
    03:00 +26°C° 1.1 mm 4 mps 757 mmHg 90%
    04:00 +26°C° 0.8 mm 4 mps 757 mmHg 90%
    05:00 +26°C° 0.8 mm 4 mps 758 mmHg 90%
    06:00 +26°C° 0.8 mm 3 mps 758 mmHg 90%
    07:00 +27°C° 2.1 mm 3 mps 758 mmHg 88%
    08:00 +28°C° 2.1 mm 3 mps 759 mmHg 86%
    09:00 +28°C° 2.1 mm 3 mps 759 mmHg 84%
    10:00 +28°C° 3.1 mm 3 mps 759 mmHg 85%
    11:00 +27°C° 3.1 mm 3 mps 758 mmHg 87%
    12:00 +27°C° 3.1 mm 3 mps 758 mmHg 89%
    13:00 +27°C° 2.5 mm 3 mps 757 mmHg 90%
    14:00 +26°C° 2.5 mm 4 mps 757 mmHg 91%
    15:00 +26°C° 2.5 mm 4 mps 757 mmHg 93%
    16:00 +26°C° 0.6 mm 4 mps 757 mmHg 92%
    17:00 +26°C° 0.6 mm 4 mps 758 mmHg 92%
    18:00 +26°C° 0.6 mm 4 mps 758 mmHg 92%
    19:00 +26°C° 0 mm 3 mps 758 mmHg 91%
    20:00 +26°C° 0 mm 3 mps 759 mmHg 90%
    21:00 +26°C° 0 mm 2 mps 759 mmHg 89%
    22:00 +26°C° 0 mm 2 mps 759 mmHg 89%
    23:00 +26°C° 0 mm 2 mps 758 mmHg 89%

    21 October, Monday

    Time Temperature Precipitation Wind Pressure Humidity
    00:00 +26°C° 0 mm 2 mps 758 mmHg 88%
    01:00 +26°C° 0 mm 2 mps 758 mmHg 89%
    02:00 +26°C° 0 mm 2 mps 758 mmHg 89%
    03:00 +26°C° 0 mm 2 mps 757 mmHg 89%
    04:00 +26°C° 0 mm 2 mps 758 mmHg 90%
    05:00 +26°C° 0 mm 1 mps 758 mmHg 91%
    06:00 +26°C° 0 mm 1 mps 759 mmHg 92%
    07:00 +27°C° 0 mm 1 mps 759 mmHg 86%
    08:00 +29°C° 0 mm 1 mps 759 mmHg 79%
    09:00 +31°C° 0 mm 1 mps 760 mmHg 73%
    10:00 +31°C° 0.3 mm 2 mps 759 mmHg 72%
    11:00 +31°C° 0.3 mm 2 mps 758 mmHg 71%
    12:00 +32°C° 0.3 mm 2 mps 758 mmHg 70%
    13:00 +33°C° 0.3 mm 3 mps 757 mmHg 69%
    14:00 +33°C° 0.3 mm 3 mps 756 mmHg 69%
    15:00 +32°C° 0.3 mm 4 mps 756 mmHg 69%
    16:00 +30°C° 0.1 mm 4 mps 756 mmHg 73%
    17:00 +29°C° 0.1 mm 3 mps 756 mmHg 77%
    18:00 +28°C° 0.1 mm 3 mps 756 mmHg 81%
    19:00 +28°C° 0 mm 3 mps 757 mmHg 82%
    20:00 +28°C° 0 mm 3 mps 757 mmHg 84%
    21:00 +27°C° 0 mm 2 mps 758 mmHg 85%
    22:00 +27°C° 0.2 mm 3 mps 758 mmHg 86%
    23:00 +27°C° 0.2 mm 3 mps 757 mmHg 87%

    22 October, Tuesday

    Time Temperature Precipitation Wind Pressure Humidity
    00:00 +27°C° 0.2 mm 3 mps 757 mmHg 88%
    01:00 +27°C° 0.4 mm 3 mps 757 mmHg 89%
    02:00 +26°C° 0.4 mm 4 mps 756 mmHg 89%
    03:00 +26°C° 0.4 mm 4 mps 756 mmHg 90%
    04:00 +26°C° 0.2 mm 4 mps 756 mmHg 90%
    05:00 +26°C° 0.2 mm 4 mps 756 mmHg 90%
    06:00 +26°C° 0.2 mm 3 mps 757 mmHg 90%
    07:00 +28°C° 0 mm 4 mps 757 mmHg 84%
    08:00 +29°C° 0 mm 4 mps 757 mmHg 77%
    09:00 +32°C° 0 mm 4 mps 757 mmHg 71%
    10:00 +32°C° 0 mm 4 mps 757 mmHg 70%
    11:00 +32°C° 0 mm 4 mps 756 mmHg 69%
    12:00 +33°C° 0 mm 4 mps 756 mmHg 69%
    13:00 +32°C° 0 mm 4 mps 755 mmHg 70%
    14:00 +32°C° 0 mm 5 mps 755 mmHg 72%
    15:00 +32°C° 0 mm 5 mps 754 mmHg 73%
    16:00 +30°C° 0 mm 4 mps 754 mmHg 77%
    17:00 +29°C° 0 mm 4 mps 755 mmHg 82%
    18:00 +28°C° 0 mm 4 mps 755 mmHg 86%
    19:00 +28°C° 0.2 mm 4 mps 755 mmHg 87%
    20:00 +28°C° 0.2 mm 3 mps 756 mmHg 88%
    21:00 +28°C° 0.2 mm 3 mps 757 mmHg 90%
    22:00 +27°C° 2 mm 3 mps 756 mmHg 89%
    23:00 +27°C° 2 mm 3 mps 756 mmHg 88%

    23 October, Wednesday

    Time Temperature Precipitation Wind Pressure Humidity
    00:00 +27°C° 2 mm 3 mps 756 mmHg 88%
    01:00 +27°C° 0.6 mm 3 mps 756 mmHg 87%
    02:00 +27°C° 0.6 mm 4 mps 755 mmHg 87%
    03:00 +27°C° 0.6 mm 4 mps 755 mmHg 86%
    04:00 +27°C° 0 mm 4 mps 755 mmHg 87%
    05:00 +27°C° 0 mm 3 mps 756 mmHg 87%
    06:00 +27°C° 0 mm 3 mps 756 mmHg 88%
    07:00 +28°C° 0 mm 3 mps 756 mmHg 82%
    08:00 +30°C° 0 mm 3 mps 757 mmHg 76%
    09:00 +32°C° 0 mm 4 mps 757 mmHg 70%
    10:00 +32°C° 0 mm 4 mps 757 mmHg 68%
    11:00 +33°C° 0 mm 4 mps 756 mmHg 66%
    12:00 +33°C° 0 mm 5 mps 756 mmHg 64%
    13:00 +33°C° 0 mm 4 mps 755 mmHg 67%
    14:00 +32°C° 0 mm 4 mps 755 mmHg 69%
    15:00 +30°C° 0 mm 4 mps 755 mmHg 72%
    16:00 +30°C° 0 mm 4 mps 755 mmHg 75%
    17:00 +29°C° 0 mm 3 mps 755 mmHg 78%
    18:00 +28°C° 0 mm 3 mps 756 mmHg 82%
    19:00 +28°C° 0 mm 3 mps 756 mmHg 83%
    20:00 +28°C° 0 mm 3 mps 757 mmHg 84%
    21:00 +28°C° 0 mm 4 mps 757 mmHg 84%
    22:00 +28°C° 0 mm 4 mps 757 mmHg 85%
    23:00 +28°C° 0 mm 4 mps 757 mmHg 85%
    Show more